Weather History for KAJZ - July, 2013

Change the Weather History Date:

Friday, July 5, 2013

  Actual Average (KMTJ) Record (KMTJ)
Temperature  
Mean Temperature 83 °F 73 °F  
Max Temperature 98 °F 90 °F 98 °F (2003)
Min Temperature 68 °F 56 °F 46 °F (1997)
Degree Days  
Heating Degree Days 0 0  
Month to date heating degree days 0  
Since 1 June heating degree days 39  
Since 1 July heating degree days 0  
Cooling Degree Days 18 8  
Month to date cooling degree days 39  
Year to date cooling degree days 191  
Since 1 June cooling degree days 174  
Growing Degree Days 33 (Base 50)    
Moisture  
Dew Point 41 °F    
Average Humidity 24    
Maximum Humidity 45    
Minimum Humidity 12    
Precipitation  
Precipitation 0.00 in 0.02 in 0.78 in (2012)
Month to date precipitation 0.12  
Year to date precipitation 5.19  
Sea Level Pressure  
Sea Level Pressure 29.93 in    
Wind  
Wind Speed 6 mph (NNE)    
Max Wind Speed 17 mph    
Max Gust Speed 30 mph    
Visibility 10 miles    
Events Thunderstorm    
T = Trace of Precipitation, MM = Missing Value Source: NWS Daily Summary

Daily Weather History Graph

Daily Weather History Graph

Search for Another Location

Airport or City:

Trip Planner

Search our weather history database for the weather conditions in past years. The results will help you decide how hot, cold, wet, or windy it might be!

Date:

Astronomy

Jul. 05, 2013 Rise Set
Actual Time 5:53 AM MDT 8:40 PM MDT
Civil Twilight 5:21 AM MDT 9:12 PM MDT
Nautical Twilight 4:41 AM MDT 9:51 PM MDT
Astronomical Twilight 3:56 AM MDT 10:36 PM MDT
Moon 3:54 AM MDT (7/5) 6:38 PM MDT (7/5)
Length of Visible Light 15h 50m
Length of Day
14h 47m
Waning Crescent, 6% of the Moon is Illuminated
Jul 5
Waning Crescent
Jul 8
New
Jul 15
First Quarter
Jul 22
Full
Jul 29
Last Quarter

Hourly Weather History & Observations

Time (MDT) Temp. Dew Point Humidity Pressure Visibility Wind Dir Wind Speed Gust Speed Precip Events Conditions
12:15 AM 77.2 °F 42.1 °F 29% 29.94 in 10.0 mi ENE 6.9 mph - N/A   Clear
12:35 AM 74.3 °F 42.6 °F 32% 29.95 in 10.0 mi NE 4.6 mph - N/A   Clear
12:55 AM 72.7 °F 44.8 °F 37% 29.94 in 10.0 mi NE 5.8 mph - N/A   Clear
1:15 AM 72.9 °F 45.3 °F 37% 29.95 in 10.0 mi Calm Calm - N/A   Scattered Clouds
1:35 AM 71.8 °F 45.3 °F 39% 29.95 in 10.0 mi East 4.6 mph - N/A   Clear
1:55 AM 72.5 °F 40.1 °F 31% 29.94 in 10.0 mi ENE 6.9 mph - N/A   Clear
2:15 AM 71.8 °F 41.0 °F 33% 29.94 in 10.0 mi ENE 5.8 mph - N/A   Clear
2:35 AM 73.4 °F 41.0 °F 31% 29.94 in 10.0 mi ENE 5.8 mph - N/A   Clear
2:55 AM 73.4 °F 41.7 °F 32% 29.95 in 10.0 mi East 3.5 mph - N/A   Scattered Clouds
3:15 AM 73.6 °F 42.3 °F 32% 29.96 in 10.0 mi ENE 6.9 mph - N/A   Scattered Clouds
3:35 AM 72.9 °F 44.1 °F 36% 29.96 in 10.0 mi NNW 5.8 mph - N/A   Scattered Clouds
3:55 AM 76.8 °F 41.9 °F 29% 29.94 in 10.0 mi East 8.1 mph - N/A   Scattered Clouds
4:15 AM 75.4 °F 41.9 °F 30% 29.96 in 10.0 mi Calm Calm - N/A   Mostly Cloudy
4:35 AM 72.9 °F 43.9 °F 35% 29.96 in 10.0 mi SSW 3.5 mph - N/A   Scattered Clouds
4:55 AM 72.0 °F 42.6 °F 35% 29.95 in 10.0 mi ENE 4.6 mph - N/A   Scattered Clouds
5:15 AM 71.8 °F 43.5 °F 36% 29.95 in 10.0 mi NE 6.9 mph - N/A Thunderstorm Mostly Cloudy
5:35 AM 72.5 °F 43.7 °F 36% 29.96 in 10.0 mi ENE 5.8 mph - N/A   Mostly Cloudy
5:55 AM 72.0 °F 44.1 °F 37% 29.96 in 10.0 mi ENE 5.8 mph - N/A   Scattered Clouds
6:15 AM 70.5 °F 45.0 °F 40% 29.98 in 10.0 mi Calm Calm - N/A   Mostly Cloudy
6:35 AM 68.9 °F 46.2 °F 44% 29.99 in 10.0 mi Calm Calm - N/A   Scattered Clouds
6:55 AM 69.1 °F 46.9 °F 45% 29.98 in 10.0 mi NNW 4.6 mph - N/A   Clear
7:15 AM 71.6 °F 46.6 °F 41% 29.99 in 10.0 mi Calm Calm - N/A   Clear
7:35 AM 74.3 °F 46.4 °F 37% 29.99 in 10.0 mi SE 3.5 mph - N/A   Clear
7:55 AM 73.9 °F 46.0 °F 37% 30.00 in 10.0 mi East 4.6 mph - N/A   Clear
8:15 AM 73.8 °F 45.9 °F 37% 30.01 in 10.0 mi East 4.6 mph - N/A   Clear
8:35 AM 75.4 °F 50.2 °F 41% 30.01 in 10.0 mi Calm Calm - N/A   Clear
8:55 AM 77.4 °F 46.6 °F 34% 30.01 in 10.0 mi ENE 6.9 mph - N/A   Clear
9:15 AM 79.9 °F 45.3 °F 29% 30.01 in 10.0 mi NE 5.8 mph - N/A   Clear
9:35 AM 81.1 °F 46.4 °F 29% 30.00 in 10.0 mi East 3.5 mph - N/A   Clear
9:55 AM 83.5 °F 46.0 °F 27% 30.00 in 10.0 mi ENE 5.8 mph - N/A   Clear
10:15 AM 85.8 °F 43.5 °F 23% 29.98 in 10.0 mi ENE 5.8 mph - N/A   Clear
10:35 AM 87.1 °F 43.2 °F 21% 29.98 in 10.0 mi ESE 4.6 mph - N/A   Clear
10:55 AM 88.3 °F 46.4 °F 23% 29.98 in 10.0 mi SE 6.9 mph - N/A   Clear
11:15 AM 88.3 °F 45.5 °F 23% 29.98 in 10.0 mi ESE 5.8 mph - N/A   Clear
11:35 AM 89.8 °F 43.9 °F 20% 29.97 in 10.0 mi ENE 3.5 mph - N/A   Clear
11:55 AM 90.0 °F 43.2 °F 20% 29.97 in 10.0 mi Calm Calm - N/A   Clear
12:15 PM 90.1 °F 43.3 °F 20% 29.97 in 10.0 mi South 5.8 mph - N/A   Clear
12:35 PM 91.8 °F 43.5 °F 19% 29.96 in 10.0 mi South 6.9 mph - N/A   Clear
12:55 PM 93.0 °F 44.6 °F 19% 29.95 in 10.0 mi South 8.1 mph - N/A   Clear
1:15 PM 93.2 °F 43.9 °F 18% 29.94 in 10.0 mi South 6.9 mph - N/A   Clear
1:35 PM 95.2 °F 43.0 °F 16% 29.94 in 10.0 mi South 8.1 mph - N/A   Clear
1:55 PM 97.0 °F 39.2 °F 13% 29.93 in 10.0 mi West 10.4 mph 18.4 mph N/A   Clear
2:15 PM 96.8 °F 39.4 °F 14% 29.92 in 10.0 mi WNW 11.5 mph 24.2 mph N/A   Clear
2:35 PM 97.7 °F 39.4 °F 13% 29.91 in 10.0 mi WNW 10.4 mph 23.0 mph N/A   Clear
2:55 PM 97.7 °F 39.9 °F 14% 29.90 in 10.0 mi West 17.3 mph 25.3 mph N/A   Clear
3:15 PM 97.0 °F 39.2 °F 13% 29.90 in 10.0 mi WNW 16.1 mph 29.9 mph N/A   Clear
3:35 PM 98.6 °F 37.6 °F 12% 29.89 in 10.0 mi West 6.9 mph 19.6 mph N/A   Clear
3:55 PM 97.7 °F 38.5 °F 13% 29.87 in 10.0 mi West 15.0 mph 20.7 mph N/A   Clear
4:15 PM 98.6 °F 36.7 °F 12% 29.86 in 10.0 mi West 15.0 mph 20.7 mph N/A   Scattered Clouds
4:35 PM 98.1 °F 37.2 °F 12% 29.86 in 10.0 mi WNW 11.5 mph 20.7 mph N/A   Clear
4:55 PM 98.8 °F 37.2 °F 12% 29.86 in 10.0 mi West 9.2 mph 19.6 mph N/A   Clear
5:15 PM 97.5 °F 36.9 °F 12% 29.85 in 10.0 mi WSW 8.1 mph 18.4 mph N/A   Clear
5:35 PM 97.2 °F 36.1 °F 12% 29.84 in 10.0 mi West 9.2 mph 20.7 mph N/A   Clear
5:55 PM 97.9 °F 36.3 °F 12% 29.84 in 10.0 mi NW 13.8 mph 18.4 mph N/A   Clear
6:15 PM 97.0 °F 36.1 °F 12% 29.85 in 10.0 mi West 9.2 mph - N/A   Clear
6:35 PM 95.5 °F 36.0 °F 12% 29.84 in 10.0 mi WNW 10.4 mph - N/A   Clear
6:55 PM 95.4 °F 35.8 °F 12% 29.84 in 10.0 mi West 9.2 mph - N/A   Clear
7:15 PM 94.6 °F 36.0 °F 13% 29.84 in 10.0 mi NW 11.5 mph 16.1 mph N/A   Clear
7:35 PM 94.3 °F 35.6 °F 13% 29.84 in 10.0 mi West 10.4 mph - N/A   Clear
7:55 PM 93.9 °F 35.4 °F 13% 29.85 in 10.0 mi WNW 9.2 mph - N/A   Clear
8:15 PM 93.4 °F 36.0 °F 13% 29.86 in 10.0 mi West 5.8 mph - N/A   Clear
8:35 PM 92.3 °F 34.2 °F 13% 29.86 in 10.0 mi WSW 9.2 mph - N/A   Clear
8:55 PM 90.7 °F 34.9 °F 14% 29.87 in 10.0 mi West 8.1 mph - N/A   Clear
9:15 PM 89.1 °F 36.0 °F 15% 29.87 in 10.0 mi West 4.6 mph - N/A   Clear
9:35 PM 88.3 °F 36.5 °F 16% 29.88 in 10.0 mi WNW 5.8 mph - N/A   Clear
9:55 PM 87.1 °F 36.7 °F 17% 29.90 in 10.0 mi NW 4.6 mph - N/A   Clear
10:15 PM 82.8 °F 37.9 °F 20% 29.91 in 10.0 mi SE 4.6 mph - N/A   Clear
10:35 PM 81.7 °F 39.9 °F 23% 29.92 in 10.0 mi ESE 6.9 mph - N/A   Clear
10:55 PM 80.8 °F 42.1 °F 25% 29.93 in 10.0 mi ESE 3.5 mph - N/A   Clear
11:15 PM 80.1 °F 41.4 °F 25% 29.93 in 10.0 mi Calm Calm - N/A   Clear
11:35 PM 79.0 °F 42.4 °F 27% 29.93 in 10.0 mi SSE 3.5 mph - N/A   Clear
11:55 PM 76.3 °F 43.9 °F 31% 29.93 in 10.0 mi ENE 5.8 mph - N/A   Clear